| time (UTC) | temp C | wind direction | speed KPH | gust KPH | rain 1hr cm | rain 24hr cm | rain mn cm | humidity % | barometer mb |
| 20260904053015 | 22 | 0.0 | 0.0 | 0.00 | 0.13 | 0.00 | 83 | 1011.4 | |
| 20260904050015 | 22 | 0.0 | 0.0 | 0.00 | 0.23 | 0.00 | 83 | 1011.4 | |
| 20260904043037 | 22 | 0.0 | 0.0 | 0.00 | 0.48 | 0.00 | 83 | 1011.5 | |
| 20260904040016 | 22 | 0.0 | 0.0 | 0.00 | 0.89 | 0.89 | 82 | 1011.8 | |
| 20260904033022 | 22 | 0.0 | 0.0 | 0.00 | 0.89 | 0.89 | 82 | 1011.8 | |
| 20260904030016 | 22 | 0.0 | 0.0 | 0.00 | 0.89 | 0.89 | 81 | 1012.2 | |
| 20260904023017 | 22 | 0.0 | 0.0 | 0.00 | 0.89 | 0.89 | 79 | 1012.2 | |
| 20260904020021 | 23 | 0.0 | 0.0 | 0.00 | 0.89 | 0.89 | 79 | 1012.5 | |
| 20260904013038 | 23 | 0.0 | 0.0 | 0.00 | 0.89 | 0.89 | 78 | 1012.2 | |
| 20260904010058 | 23 | 0.0 | 0.0 | 0.00 | 0.89 | 0.89 | 77 | 1012.3 | |
| 20260904003017 | 24 | 0.0 | 0.0 | 0.00 | 0.89 | 0.89 | 77 | 1012.1 | |
| 20260904000020 | 25 | 0.0 | 0.0 | 0.00 | 0.89 | 0.89 | 76 | 1011.8 | |
| 20260903233015 | 25 | 0.0 | 0.0 | 0.00 | 0.89 | 0.89 | 74 | 1011.5 | |
| 20260903230015 | 26 | 0.0 | 0.0 | 0.00 | 0.89 | 0.89 | 71 | 1011.5 | |
| 20260903223017 | 27 | 0.0 | 0.0 | 0.00 | 0.89 | 0.89 | 67 | 1011.6 | |
| 20260903220016 | 27 | 0.0 | 0.0 | 0.00 | 0.89 | 0.89 | 68 | 1011.6 | |
| 20260903213016 | 27 | 0.0 | 3.2 | 0.00 | 0.89 | 0.89 | 67 | 1011.8 | |
| 20260903210015 | 28 | 0.0 | 3.2 | 0.00 | 0.89 | 0.89 | 63 | 1011.6 | |
| 20260903203015 | 28 | 0.0 | 3.2 | 0.00 | 0.89 | 0.89 | 61 | 1011.8 | |
| 20260903200015 | 28 | 0.0 | 3.2 | 0.00 | 0.89 | 0.89 | 64 | 1012.1 | |
| 20260903193015 | 28 | 0.0 | 3.2 | 0.00 | 0.89 | 0.89 | 62 | 1012.1 | |
| 20260903190017 | 28 | 68 | 1.6 | 3.2 | 0.00 | 0.89 | 0.89 | 65 | 1012.4 |
| 20260903183018 | 27 | 0.0 | 3.2 | 0.00 | 0.89 | 0.89 | 70 | 1012.6 | |
| 20260903180038 | 27 | 0.0 | 4.8 | 0.00 | 1.22 | 0.89 | 70 | 1012.8 | |
| 20260903173017 | 26 | 0.0 | 3.2 | 0.00 | 1.63 | 0.89 | 69 | 1013.0 | |
| 20260903170038 | 26 | 0.0 | 3.2 | 0.00 | 1.63 | 0.89 | 72 | 1013.3 | |
| 20260903163017 | 26 | 225 | 1.6 | 6.4 | 0.00 | 1.63 | 0.89 | 70 | 1013.6 |
| 20260903160017 | 25 | 225 | 1.6 | 6.4 | 0.00 | 1.63 | 0.89 | 71 | 1013.8 |
| 20260903153038 | 25 | 225 | 1.6 | 4.8 | 0.00 | 1.63 | 0.89 | 73 | 1014.0 |
| 20260903150016 | 23 | 0.0 | 6.4 | 0.00 | 1.63 | 0.89 | 76 | 1014.4 | |
| 20260903143016 | 22 | 225 | 1.6 | 4.8 | 0.00 | 1.63 | 0.89 | 79 | 1014.3 |
| 20260903140016 | 22 | 0.0 | 4.8 | 0.00 | 1.63 | 0.89 | 82 | 1014.1 | |
| 20260903133036 | 21 | 0.0 | 6.4 | 0.00 | 1.63 | 0.89 | 83 | 1014.4 | |
| 20260903130017 | 20 | 0.0 | 4.8 | 0.00 | 1.63 | 0.89 | 84 | 1014.3 | |
| 20260903123021 | 20 | 0.0 | 1.6 | 0.00 | 1.63 | 0.89 | 84 | 1014.8 | |
| 20260903120018 | 19 | 0.0 | 1.6 | 0.00 | 1.63 | 0.89 | 84 | 1014.7 | |
| 20260903113017 | 19 | 0.0 | 0.0 | 0.00 | 1.63 | 0.89 | 84 | 1015.0 | |
| 20260903110016 | 18 | 0.0 | 1.6 | 0.00 | 1.63 | 0.89 | 84 | 1015.2 | |
| 20260903103016 | 19 | 0.0 | 3.2 | 0.00 | 1.63 | 0.89 | 84 | 1015.2 | |
| 20260903100016 | 18 | 0.0 | 6.4 | 0.00 | 1.63 | 0.89 | 84 | 1015.0 | |
| 20260903093016 | 18 | 0.0 | 1.6 | 0.00 | 1.63 | 0.89 | 84 | 1014.6 | |
| 20260903090016 | 18 | 0.0 | 0.0 | 0.05 | 1.63 | 0.89 | 84 | 1014.9 | |
| 20260903083016 | 18 | 0.0 | 1.6 | 0.08 | 1.63 | 0.89 | 84 | 1015.3 | |
| 20260903080021 | 18 | 0.0 | 3.2 | 0.05 | 1.57 | 0.84 | 84 | 1014.8 | |
| 20260903073016 | 18 | 0.0 | 3.2 | 0.03 | 1.55 | 0.81 | 84 | 1015.4 | |
| 20260903070018 | 18 | 0.0 | 1.6 | 0.00 | 1.52 | 0.79 | 84 | 1015.5 | |
| 20260903063037 | 18 | 0.0 | 1.6 | 0.03 | 1.52 | 0.79 | 84 | 1015.7 | |
| 20260903060015 | 18 | 0.0 | 4.8 | 0.13 | 1.52 | 0.79 | 83 | 1015.7 |